Weather History for Shawnee, OK

Change the Weather History Date:

Friday, January 11, 2013

  Actual Average (KTIK) Record (KTIK)
Temperature  
Mean Temperature 60 °F -  
Max Temperature 71 °F 45 °F 69 °F (2013)
Min Temperature 48 °F 27 °F 9 °F (2011)
Degree Days  
Heating Degree Days 6    
Growing Degree Days 10 (Base 50)    
Moisture  
Dew Point 51 °F    
Average Humidity 77    
Maximum Humidity 100    
Minimum Humidity 50    
Precipitation  
Precipitation 0.00 in - - ()
Sea Level Pressure  
Sea Level Pressure 29.78 in    
Wind  
Wind Speed 13 mph (South)    
Max Wind Speed 21 mph    
Max Gust Speed 28 mph    
Visibility 10 miles    
Events      
Averages and records for this station are not official NWS values.
T = Trace of Precipitation, MM = Missing Value Source: NWS Daily Summary

Daily Weather History Graph

Daily Weather History Graph

Search for Another Location

Airport:

Trip Planner

Search our weather history database for the weather conditions in past years. The results will help you decide how hot, cold, wet, or windy it might be!

Date:

Astronomy

Jan. 11, 2013 Rise Set
Actual Time 7:36 AM CST 5:35 PM CST
Civil Twilight 7:09 AM CST 6:02 PM CST
Nautical Twilight 6:37 AM CST 6:34 PM CST
Astronomical Twilight 6:07 AM CST 7:04 PM CST
Moon 7:12 AM CST (1/11) 5:52 PM CST (1/11)
Length of Visible Light 10h 53m
Length of Day
9h 58m
Waning Crescent, 0% of the Moon is Illuminated
Jan 11
Waning Crescent
Jan 11
New
Jan 18
First Quarter
Jan 26
Full
Feb 3
Last Quarter

Hourly Weather History & Observations

Time (CST) Temp. Dew Point Humidity Pressure Visibility Wind Dir Wind Speed Gust Speed Precip Events Conditions
12:15 AM 51.8 °F 51.8 °F 100% 29.87 in 10.0 mi SSW 10.4 mph - N/A   Clear
12:35 AM 51.8 °F 51.8 °F 100% 29.87 in 10.0 mi SSW 11.5 mph - N/A   Clear
12:55 AM 51.8 °F 51.8 °F 100% 29.87 in 10.0 mi SSW 11.5 mph - N/A   Clear
1:15 AM 51.8 °F 51.8 °F 100% 29.85 in 10.0 mi South 11.5 mph 16.1 mph N/A   Clear
1:35 AM 51.8 °F 51.8 °F 100% 29.86 in 10.0 mi South 11.5 mph - N/A   Clear
1:55 AM 51.8 °F 51.8 °F 100% 29.85 in 10.0 mi South 9.2 mph - N/A   Clear
2:15 AM 50.0 °F 50.0 °F 100% 29.86 in 10.0 mi South 11.5 mph - N/A   Clear
2:35 AM 48.2 °F 48.2 °F 100% 29.85 in 10.0 mi South 10.4 mph - N/A   Clear
2:55 AM 48.2 °F 48.2 °F 100% 29.85 in 10.0 mi South 9.2 mph - N/A   Clear
3:15 AM 50.0 °F 50.0 °F 100% 29.85 in 10.0 mi South 12.7 mph - N/A   Clear
3:35 AM 51.8 °F 51.8 °F 100% 29.83 in 10.0 mi South 12.7 mph - N/A   Clear
3:55 AM 51.8 °F 50.0 °F 94% 29.81 in 10.0 mi South 13.8 mph - N/A   Clear
4:15 AM 51.8 °F 50.0 °F 94% 29.80 in 10.0 mi South 12.7 mph - N/A   Clear
4:35 AM 51.8 °F 50.0 °F 94% 29.79 in 10.0 mi South 13.8 mph - N/A   Clear
4:55 AM 51.8 °F 50.0 °F 94% 29.79 in 10.0 mi South 15.0 mph 20.7 mph N/A   Clear
5:15 AM 51.8 °F 50.0 °F 94% 29.79 in 10.0 mi South 15.0 mph 19.6 mph N/A   Clear
5:55 AM 50.0 °F 50.0 °F 100% 29.79 in 10.0 mi South 10.4 mph - N/A   Clear
6:15 AM 48.2 °F 48.2 °F 100% 29.78 in 10.0 mi South 11.5 mph - N/A   Clear
6:35 AM 51.8 °F 50.0 °F 94% 29.78 in 10.0 mi South 13.8 mph - N/A   Clear
6:55 AM 51.8 °F 50.0 °F 94% 29.78 in 10.0 mi South 13.8 mph 19.6 mph N/A   Clear
7:15 AM 51.8 °F 48.2 °F 88% 29.79 in 10.0 mi South 13.8 mph 19.6 mph N/A   Clear
7:35 AM 51.8 °F 48.2 °F 88% 29.79 in 10.0 mi SSW 17.3 mph 24.2 mph N/A   Clear
7:55 AM 51.8 °F 48.2 °F 88% 29.79 in 10.0 mi SSW 17.3 mph 25.3 mph N/A   Clear
8:15 AM 51.8 °F 48.2 °F 88% 29.79 in 10.0 mi South 18.4 mph 25.3 mph N/A   Clear
8:35 AM 53.6 °F 48.2 °F 82% 29.80 in 10.0 mi SSW 16.1 mph 25.3 mph N/A   Clear
8:55 AM 53.6 °F 48.2 °F 82% 29.81 in 10.0 mi SSW 19.6 mph 25.3 mph N/A   Clear
9:15 AM 55.4 °F 50.0 °F 82% 29.83 in 10.0 mi SSW 16.1 mph 23.0 mph N/A   Clear
9:35 AM 55.4 °F 50.0 °F 82% 29.81 in 10.0 mi SSW 17.3 mph 23.0 mph N/A   Clear
9:55 AM 59.0 °F 50.0 °F 72% 29.81 in 10.0 mi SSW 17.3 mph 24.2 mph N/A   Clear
10:15 AM 59.0 °F 50.0 °F 72% 29.81 in 10.0 mi SSW 18.4 mph 24.2 mph N/A   Clear
10:35 AM 59.0 °F 48.2 °F 67% 29.80 in 10.0 mi SSW 18.4 mph 26.5 mph N/A   Clear
10:55 AM 60.8 °F 50.0 °F 68% 29.80 in 10.0 mi SW 17.3 mph 24.2 mph N/A   Clear
11:35 AM 60.8 °F 50.0 °F 68% 29.79 in 10.0 mi SSW 16.1 mph 25.3 mph N/A   Clear
11:55 AM 62.6 °F 50.0 °F 63% 29.78 in 10.0 mi SSW 19.6 mph 24.2 mph N/A   Clear
12:15 PM 64.4 °F 50.0 °F 59% 29.76 in 10.0 mi SSW 18.4 mph 24.2 mph N/A   Clear
12:35 PM 66.2 °F 50.0 °F 56% 29.74 in 10.0 mi SSW 20.7 mph 25.3 mph N/A   Clear
12:55 PM 66.2 °F 50.0 °F 56% 29.73 in 10.0 mi SSW 20.7 mph 27.6 mph N/A   Clear
1:15 PM 66.2 °F 51.8 °F 60% 29.73 in 10.0 mi South 13.8 mph - N/A   Clear
1:35 PM 68.0 °F 51.8 °F 56% 29.71 in 10.0 mi SSW 11.5 mph 18.4 mph N/A   Clear
1:55 PM 71.6 °F 51.8 °F 50% 29.71 in 10.0 mi SSW 19.6 mph 27.6 mph N/A   Clear
2:15 PM 71.6 °F 53.6 °F 53% 29.70 in 10.0 mi South 16.1 mph 20.7 mph N/A   Clear
2:35 PM 71.6 °F 51.8 °F 50% 29.70 in 10.0 mi South 16.1 mph 23.0 mph N/A   Clear
2:55 PM 71.6 °F 51.8 °F 50% 29.71 in 10.0 mi South 16.1 mph 21.9 mph N/A   Clear
3:15 PM 71.6 °F 51.8 °F 50% 29.70 in 10.0 mi South 17.3 mph 21.9 mph N/A   Clear
3:35 PM 71.6 °F 51.8 °F 50% 29.71 in 10.0 mi South 11.5 mph 20.7 mph N/A   Clear
3:55 PM 71.6 °F 51.8 °F 50% 29.71 in 10.0 mi South 12.7 mph 17.3 mph N/A   Clear
4:15 PM 71.6 °F 53.6 °F 53% 29.71 in 10.0 mi South 13.8 mph 19.6 mph N/A   Clear
4:35 PM 71.6 °F 53.6 °F 53% 29.71 in 10.0 mi South 13.8 mph - N/A   Clear
4:55 PM 69.8 °F 53.6 °F 56% 29.71 in 10.0 mi South 13.8 mph 20.7 mph N/A   Clear
5:15 PM 68.0 °F 51.8 °F 56% 29.71 in 10.0 mi South 13.8 mph 18.4 mph N/A   Clear
5:35 PM 68.0 °F 51.8 °F 56% 29.72 in 10.0 mi South 12.7 mph - N/A   Clear
5:55 PM 66.2 °F 51.8 °F 60% 29.73 in 10.0 mi South 12.7 mph - N/A   Clear
6:15 PM 64.4 °F 51.8 °F 64% 29.73 in 10.0 mi South 10.4 mph - N/A   Clear
6:35 PM 64.4 °F 51.8 °F 64% 29.74 in 10.0 mi South 9.2 mph - N/A   Clear
6:55 PM 62.6 °F 51.8 °F 68% 29.74 in 10.0 mi South 12.7 mph - N/A   Clear
7:15 PM 64.4 °F 53.6 °F 68% 29.74 in 10.0 mi South 12.7 mph 21.9 mph N/A   Clear
7:35 PM 62.6 °F 53.6 °F 72% 29.75 in 10.0 mi South 13.8 mph 18.4 mph N/A   Clear
7:55 PM 62.6 °F 53.6 °F 72% 29.75 in 10.0 mi South 13.8 mph - N/A   Clear
8:15 PM 62.6 °F 53.6 °F 72% 29.75 in 10.0 mi South 12.7 mph - N/A   Clear
8:35 PM 62.6 °F 55.4 °F 77% 29.76 in 10.0 mi South 13.8 mph 21.9 mph N/A   Clear
8:55 PM 62.6 °F 55.4 °F 77% 29.76 in 10.0 mi South 15.0 mph - N/A   Clear
9:15 PM 62.6 °F 55.4 °F 77% 29.77 in 10.0 mi South 12.7 mph 19.6 mph N/A   Clear
9:35 PM 62.6 °F 55.4 °F 77% 29.78 in 10.0 mi South 10.4 mph - N/A   Clear
9:55 PM 62.6 °F 55.4 °F 77% 29.78 in 10.0 mi South 10.4 mph - N/A   Clear
10:15 PM 60.8 °F 55.4 °F 82% 29.78 in 10.0 mi SSE 6.9 mph - N/A   Clear
10:35 PM 60.8 °F 53.6 °F 77% 29.79 in 10.0 mi SSE 6.9 mph - N/A   Clear
10:55 PM 60.8 °F 53.6 °F 77% 29.79 in 10.0 mi SSE 6.9 mph - N/A   Clear
11:15 PM 60.8 °F 55.4 °F 82% 29.81 in 10.0 mi South 5.8 mph - N/A   Clear
11:35 PM 60.8 °F 55.4 °F 82% 29.81 in 10.0 mi South 4.6 mph - N/A   Clear
11:55 PM 60.8 °F 55.4 °F 82% 29.84 in 10.0 mi West 6.9 mph - N/A   Scattered Clouds